Stanton, MN

10:28 PM CST on January 23, 2018 (GMT -0600)
Stanton

Weather History for KSYN - September, 2013

Change the Weather History Date:

Thursday, September 12, 2013

  Actual Average (KLVN) Record (KLVN)
Temperature  
Mean Temperature 62 °F -  
Max Temperature 74 °F 74 °F 97 °F (1948)
Min Temperature 49 °F 51 °F 32 °F (2007)
Degree Days  
Heating Degree Days 3    
Growing Degree Days 12 (Base 50)    
Moisture  
Dew Point 47 °F    
Average Humidity 60    
Maximum Humidity 89    
Minimum Humidity 30    
Precipitation  
Precipitation 0.00 in - - ()
Sea Level Pressure  
Sea Level Pressure 30.15 in    
Wind  
Wind Speed 7 mph (NNW)    
Max Wind Speed 18 mph    
Max Gust Speed 22 mph    
Visibility 10 miles    
Events      
Averages and records for this station are not official NWS values.
T = Trace of Precipitation, MM = Missing Value Source: NWS Daily Summary

Daily Weather History Graph

Daily Weather History Graph

Search for Another Location

Airport or City:

Trip Planner

Search our weather history database for the weather conditions in past years. The results will help you decide how hot, cold, wet, or windy it might be!

Date:

Astronomy

Sep. 12, 2013 Rise Set
Actual Time 6:47 AM CDT 7:27 PM CDT
Civil Twilight 6:18 AM CDT 7:57 PM CDT
Nautical Twilight 5:43 AM CDT 8:31 PM CDT
Astronomical Twilight 5:07 AM CDT 9:07 PM CDT
Moon 2:31 PM CDT (9/12) No Moon Set
Length of Visible Light 13h 38m
Length of Day
12h 39m
Waxing Crescent, 50% of the Moon is Illuminated
Sep 12
Waxing Crescent
Sep 12
First Quarter
Sep 19
Full
Sep 26
Last Quarter
Oct 4
New

Hourly Weather History & Observations

Time (CDT) Temp. Dew Point Humidity Pressure Visibility Wind Dir Wind Speed Gust Speed Precip Events Conditions
12:12 AM 65.5 °F 50.9 °F 59% 30.05 in 10.0 mi NW 6.9 mph - N/A   Clear
12:32 AM 64.6 °F 50.0 °F 59% 30.05 in 10.0 mi NW 6.9 mph - N/A   Clear
12:52 AM 64.2 °F 49.1 °F 58% 30.06 in 10.0 mi NW 6.9 mph - N/A   Clear
1:12 AM 62.2 °F 49.1 °F 62% 30.06 in 10.0 mi WNW 6.9 mph - N/A   Clear
1:32 AM 61.3 °F 49.1 °F 64% 30.06 in 10.0 mi WNW 6.9 mph - N/A   Clear
1:51 AM 60.4 °F 49.1 °F 66% 30.07 in 10.0 mi WNW 4.6 mph - N/A   Clear
2:12 AM 59.7 °F 48.9 °F 67% 30.07 in 10.0 mi NW 5.8 mph - N/A   Clear
2:31 AM 59.5 °F 49.3 °F 69% 30.08 in 10.0 mi NW 6.9 mph - N/A   Clear
2:52 AM 58.8 °F 49.1 °F 70% 30.09 in 10.0 mi WNW 5.8 mph - N/A   Clear
3:12 AM 56.5 °F 49.1 °F 76% 30.10 in 10.0 mi NW 5.8 mph - N/A   Clear
3:32 AM 56.3 °F 49.1 °F 77% 30.10 in 10.0 mi NNW 6.9 mph - N/A   Clear
3:51 AM 57.2 °F 49.3 °F 75% 30.10 in 10.0 mi NW 6.9 mph - N/A   Clear
4:12 AM 55.2 °F 48.9 °F 79% 30.10 in 10.0 mi NW 3.5 mph - N/A   Clear
4:32 AM 54.1 °F 48.6 °F 81% 30.11 in 10.0 mi NW 5.8 mph - N/A   Clear
4:52 AM 54.9 °F 49.3 °F 81% 30.11 in 10.0 mi NW 6.9 mph - N/A   Clear
5:12 AM 53.6 °F 48.6 °F 83% 30.13 in 10.0 mi NW 4.6 mph - N/A   Clear
5:32 AM 52.7 °F 48.4 °F 85% 30.12 in 10.0 mi Calm Calm - N/A   Clear
5:52 AM 51.4 °F 47.8 °F 87% 30.13 in 10.0 mi WNW 3.5 mph - N/A   Clear
6:12 AM 50.5 °F 47.5 °F 89% 30.13 in 10.0 mi WNW 3.5 mph - N/A   Clear
6:32 AM 50.9 °F 47.5 °F 88% 30.14 in 10.0 mi NW 3.5 mph - N/A   Clear
6:52 AM 52.2 °F 48.2 °F 86% 30.15 in 10.0 mi Calm Calm - N/A   Clear
7:12 AM 51.1 °F 47.8 °F 89% 30.15 in 10.0 mi WSW 3.5 mph - N/A   Clear
7:32 AM 51.8 °F 48.7 °F 89% 30.16 in 10.0 mi Calm Calm - N/A   Clear
7:52 AM 54.7 °F 50.4 °F 85% 30.16 in 10.0 mi Calm Calm - N/A   Clear
8:12 AM 57.6 °F 52.0 °F 82% 30.16 in 10.0 mi WNW 3.5 mph - N/A   Clear
8:32 AM 59.4 °F 52.0 °F 77% 30.17 in 10.0 mi North 8.1 mph - N/A   Clear
8:52 AM 60.8 °F 51.8 °F 72% 30.17 in 10.0 mi NNW 8.1 mph - N/A   Clear
9:12 AM 62.2 °F 51.4 °F 68% 30.18 in 10.0 mi NW 8.1 mph - N/A   Clear
9:32 AM 63.5 °F 51.3 °F 64% 30.19 in 10.0 mi NNW 9.2 mph - N/A   Clear
9:52 AM 65.3 °F 50.7 °F 59% 30.20 in 10.0 mi NNW 10.4 mph - N/A   Clear
10:12 AM 66.4 °F 50.0 °F 56% 30.19 in 10.0 mi NNW 12.7 mph 17.3 mph N/A   Clear
10:32 AM 68.0 °F 49.8 °F 52% 30.19 in 10.0 mi North 11.5 mph 17.3 mph N/A   Clear
10:51 AM 68.4 °F 50.2 °F 52% 30.19 in 10.0 mi NNW 10.4 mph - N/A   Clear
11:12 AM 71.1 °F 50.2 °F 48% 30.19 in 10.0 mi North 12.7 mph 18.4 mph N/A   Scattered Clouds
11:32 AM 70.9 °F 49.5 °F 47% 30.19 in 10.0 mi North 15.0 mph 19.6 mph N/A   Scattered Clouds
11:51 AM 70.9 °F 49.3 °F 46% 30.19 in 10.0 mi NW 17.3 mph - N/A   Scattered Clouds
12:12 PM 71.4 °F 48.7 °F 45% 30.19 in 10.0 mi NNW 13.8 mph 20.7 mph N/A   Scattered Clouds
12:32 PM 71.6 °F 48.4 °F 44% 30.19 in 10.0 mi North 10.4 mph 17.3 mph N/A   Mostly Cloudy
12:51 PM 72.1 °F 48.6 °F 43% 30.18 in 10.0 mi North 15.0 mph 18.4 mph N/A   Scattered Clouds
1:12 PM 71.8 °F 47.5 °F 42% 30.18 in 10.0 mi NNW 12.7 mph 20.7 mph N/A   Mostly Cloudy
1:32 PM 71.1 °F 48.4 °F 44% 30.17 in 10.0 mi NNW 15.0 mph 19.6 mph N/A   Mostly Cloudy
1:52 PM 72.9 °F 47.3 °F 40% 30.17 in 10.0 mi NNW 15.0 mph 21.9 mph N/A   Mostly Cloudy
2:12 PM 71.2 °F 47.3 °F 42% 30.17 in 10.0 mi North 8.1 mph - N/A   Overcast
2:32 PM 73.6 °F 45.3 °F 36% 30.17 in 10.0 mi NNW 13.8 mph 19.6 mph N/A   Scattered Clouds
2:52 PM 74.1 °F 45.5 °F 36% 30.16 in 10.0 mi NNW 16.1 mph - N/A   Mostly Cloudy
3:12 PM 73.0 °F 43.9 °F 35% 30.16 in 10.0 mi North 12.7 mph 19.6 mph N/A   Mostly Cloudy
3:32 PM 71.8 °F 41.7 °F 34% 30.16 in 10.0 mi North 15.0 mph 20.7 mph N/A   Scattered Clouds
3:52 PM 74.1 °F 41.4 °F 31% 30.15 in 10.0 mi NNW 11.5 mph 18.4 mph N/A   Scattered Clouds
4:12 PM 73.9 °F 41.2 °F 31% 30.15 in 10.0 mi NNW 16.1 mph 19.6 mph N/A   Scattered Clouds
4:31 PM 71.6 °F 40.1 °F 32% 30.15 in 10.0 mi NNW 12.7 mph - N/A   Scattered Clouds
4:52 PM 72.9 °F 41.7 °F 33% 30.15 in 10.0 mi North 15.0 mph 21.9 mph N/A   Scattered Clouds
5:12 PM 73.0 °F 40.1 °F 30% 30.15 in 10.0 mi NNW 18.4 mph - N/A   Scattered Clouds
5:32 PM 72.0 °F 41.2 °F 33% 30.15 in 10.0 mi North 12.7 mph 16.1 mph N/A   Scattered Clouds
5:52 PM 71.8 °F 40.5 °F 32% 30.15 in 10.0 mi North 11.5 mph 18.4 mph N/A   Scattered Clouds
6:12 PM 70.9 °F 42.4 °F 36% 30.15 in 10.0 mi NNE 11.5 mph - N/A   Scattered Clouds
6:31 PM 69.8 °F 41.2 °F 35% 30.16 in 10.0 mi North 10.4 mph 18.4 mph N/A   Scattered Clouds
6:52 PM 68.0 °F 42.1 °F 39% 30.16 in 10.0 mi North 6.9 mph - N/A   Scattered Clouds
7:12 PM 67.3 °F 43.3 °F 42% 30.17 in 10.0 mi North 6.9 mph - N/A   Scattered Clouds
7:31 PM 64.4 °F 43.9 °F 47% 30.17 in 10.0 mi North 4.6 mph - N/A   Clear
7:52 PM 62.6 °F 45.0 °F 52% 30.18 in 10.0 mi North 5.8 mph - N/A   Scattered Clouds
8:12 PM 62.1 °F 45.5 °F 55% 30.18 in 10.0 mi North 4.6 mph - N/A   Scattered Clouds
8:31 PM 61.0 °F 45.5 °F 57% 30.19 in 10.0 mi North 4.6 mph - N/A   Clear
8:52 PM 59.5 °F 46.0 °F 61% 30.19 in 10.0 mi North 4.6 mph - N/A   Clear
9:12 PM 57.7 °F 46.2 °F 65% 30.20 in 10.0 mi NNW 3.5 mph - N/A   Clear
9:31 PM 56.8 °F 46.0 °F 67% 30.20 in 10.0 mi Calm Calm - N/A   Clear
9:52 PM 55.6 °F 45.7 °F 69% 30.20 in 10.0 mi Calm Calm - N/A   Clear
10:12 PM 53.6 °F 47.3 °F 79% 30.20 in 10.0 mi Calm Calm - N/A   Clear
10:31 PM 52.0 °F 47.3 °F 84% 30.21 in 10.0 mi Calm Calm - N/A   Clear
10:52 PM 51.3 °F 46.4 °F 83% 30.21 in 10.0 mi Calm Calm - N/A   Clear
11:12 PM 50.5 °F 46.4 °F 86% 30.22 in 10.0 mi Calm Calm - N/A   Clear
11:31 PM 50.2 °F 46.4 °F 87% 30.22 in 10.0 mi Calm Calm - N/A   Clear
11:52 PM 49.3 °F 45.7 °F 87% 30.22 in 10.0 mi Calm Calm - N/A   Clear